Погода в Белово

Россия / Кемеровская область (Кузбасс)     54°25′19″N   86°18′13″E
темп.,
°C
ветер,
м/с
пор.,
м/с
влажн.,
%
обл.,
%
осадки,
мм/ч
давл.,
гПа
погр.,
м
11 мая, вт
вт1101:00+8св5126173 0.0 1016298
04:00+7св51265100 0.0 1014312
07:00+8св5126599 0.0 1014477
10:00+13всв6742100 0.0 10131136
13:00+17всв7832100 0.0 10131959
16:00+18всв6826100 0.0 10132502
19:00+17св5833100 0.0 1014816
22:00+13ссв3850100 0.0 1015132
12 мая, ср
ср1201:00+11св3855100 0.0 1015139
04:00+9ссв3758100 0.0 1015129
07:00+10ссв3957100 0.0 1016227
10:00+16св5838100 0.0 1015972
13:00+19св5631100 0.0 10152496
16:00+19ссв5528100 0.0 10142701
19:00+17св784193 0.0 10151000
22:00+12ссв35595 0.0 101686
13 мая, чт
чт1301:00+10с226584 0.0 101626
04:00+9всв006588 0.0 101610
07:00+11в116019 0.0 101660
10:00+15ююв324334 0.0 1015687
13:00+19юз123294 0.0 10132498
16:00+18з233986 0.0 10131853
19:00+18ю4540100 0.0 10121556
22:00+13зюз2359100 0.1 1012102
14 мая, пт
пт1401:00+11ссз5976100 0.4 1013445
04:00+10ссз3687100 0.1 1013348
07:00+9ссз588198 0.5 1015508
10:00+12ссз68497 0.0 10151472
13:00+13сз8849100 0.0 10161946
16:00+12ссз895881 0.1 10181422
19:00+11сз584424 0.3 10211637
22:00+8сз225287 0.0 102334
15 мая, сб
сб1501:00+6зюз225782 0.0 102420
04:00+6юз3659100 0.0 1023118
07:00+8юз51256100 0.0 1023358
10:00+9юз4105398 0.0 1024401
13:00+17зюз793496 0.0 10211353
16:00+20зюз81032100 0.0 10201778
19:00+19зюз594099 0.0 1020497
22:00+15ююз345337 0.0 102095